Flag Weather past 2 weeks in Horten, Norway

Now
48 °F

Light rain. Passing clouds.


Feels Like: 39 °F
Forecast: 44 / 54 °F
Wind: 31 mph from Southeast

Location: Oseberg

Current Time: Oct 31, 2014 at 6:55:40 AM

Latest Report: Oct 31, 2014 at 5:50 AM


Visibility: N/A

Pressure: 29.95 "Hg

Humidity: 94%

Dew point: 46 °F

Location of HortenLocation

Historic Weather in Horten — Graph

°F

Horten temperature yesterday

Maximum temperature yesterday: 48 °F (at 9:50 AM)
Minimum temperature yesterday: 46 °F (at 12:50 AM)
Average temperature yesterday: 47 °F

Past Weeks' High & Low Weather Summary

 TemperatureHumidityPressure
High55 °F (Oct 18, 2:50 PM)100% (Oct 18, 10:50 AM)30.15 "Hg (Oct 18, 10:50 AM)
Low43 °F (Oct 22, 7:20 AM)50% (Oct 16, 10:50 PM)29.06 "Hg (Oct 21, 12:50 PM)
Average50 °F81%29.60 "Hg
* Reported Oct 16 6:50 AM — Oct 31 5:50 AM, Horten, Weather by CustomWeather, © 2014

Note: Actual official high and low records may vary slightly from our data, if they occured in-between our weather recording intervals... More about our weather records

Advertising

Horten weather history for previous 24 hours

 ConditionsComfort  
Time TempWeatherWind HumidityBarometerVisibility
5:50 AM
Oct 31
48 °FLight rain. Passing clouds.31 mph94%29.95 "HgN/A
4:50 AM48 °FPassing clouds.32 mph87%29.98 "HgN/A
3:50 AM48 °FPassing clouds.30 mph87%29.98 "HgN/A
2:50 AM48 °FPassing clouds.36 mph82%30.01 "HgN/A
1:50 AM48 °FPassing clouds.32 mph82%30.01 "HgN/A
12:50 AM48 °FPassing clouds.30 mph76%30.04 "HgN/A
11:50 PM
Oct 30
48 °FPassing clouds.30 mph82%30.04 "HgN/A
10:50 PM48 °FOvercast.31 mph76%30.04 "HgN/A
9:50 PM48 °FPassing clouds.26 mph76%30.07 "HgN/A
8:50 PM46 °FLight rain. Partly cloudy.30 mph93%30.09 "HgN/A
7:50 PM48 °FPartly cloudy.28 mph76%30.09 "HgN/A
6:50 PM48 °FPartly cloudy.22 mph71%30.09 "HgN/A
6:20 PM48 °FPassing clouds.21 mph71%30.09 "HgN/A
5:50 PM46 °FClear.16 mph76%30.09 "Hg10 mi
4:50 PM48 °FPassing clouds.17 mph71%30.09 "HgN/A
4:20 PM48 °FDrizzle. More clouds than sun.21 mph71%30.12 "HgN/A
3:20 PM48 °FBroken clouds.23 mph71%30.12 "HgN/A
2:50 PM48 °FLight rain. Partly sunny.22 mph71%30.12 "HgN/A
2:20 PM48 °FPartly sunny.12 mph76%30.12 "HgN/A
1:50 PM46 °FPartly sunny.10 mph76%30.12 "HgN/A
1:20 PM46 °FLight rain. Partly sunny.10 mph76%30.12 "HgN/A
12:50 PM48 °FDrizzle. Partly sunny.16 mph71%30.12 "HgN/A
12:20 PM48 °FBroken clouds.17 mph71%30.12 "HgN/A
11:50 AM48 °FPassing clouds.15 mph66%30.15 "HgN/A
10:50 AM48 °FScattered clouds.14 mph66%30.15 "HgN/A
10:20 AM48 °FPartly sunny.12 mph66%30.15 "HgN/A
9:50 AM48 °FScattered clouds.12 mph62%30.12 "HgN/A
9:20 AM46 °FSunny.13 mph66%30.12 "Hg10 mi
8:50 AM46 °FSunny.12 mph66%30.12 "Hg10 mi
8:20 AM46 °FPassing clouds.10 mph66%30.12 "HgN/A
7:50 AM46 °FPartly sunny.8 mph66%30.12 "HgN/A
6:50 AM46 °FClear.9 mph66%30.12 "Hg10 mi
Weather by CustomWeather, © 2014

See weather overviewHow to use our weather pages